Погода Аксаково

Погода Аксаково : погода сейчас, прогноз погоды и архив. Всё, что Вы хотите узнать о погоде Аксаково!

Поиск расширенной информации на нашем сайте:

Другие новости

Новости СМИ2

Главная страница сайта

Новости сайта

03.07.2017

Напоминаем, что на нашем специализированном сайте Метеоцентр.Азия вы можете получить высокодетализированные автоматические прогнозы погоды по пунктам России, СНГ и мира в авиационном формате (включающие направление и скорость ветра, видимость, явления погоды, количество и форму облачности, нижнюю и верхнюю границу облачности).


Погода Аксаково - сегодня

Время (UTC), дата Ветер
(°,м/с) 
Видим.   Явления Облачность Т
(°С)
Тd
(°С)
f(%) Тe
(°С)
Pmin
(гПа)
dP
(гПа)
Po
(мм)
O2
(г/м3)
Тmin Tmax R s Состояние
почвы
15 11.10.18 340 (С) 6-10{13}  10 км  в посл. час ливневой дождь  10/10 300 м кучево-дожд. 
[Cb cap]
+3.7 +0.7 81 +1  1014.8  2.1  729  290    +9.4  0.5     
21 11.10.18 350 (С) 6{12}  10 км    10/10 600 м кучево-дожд. 
[Cb cap]
+2.6 -0.7 79 1016.9  0.9  731  292           
00 12.10.18 320 (СЗ) 10 км  в посл. час ливневой дождь  10/10 600 м кучево-дожд. 
[Cb cap]
+2 -0.3 85 -1  1017.8  0.8  731  292           
03 12.10.18 330 (СЗ) 20000 м    10/10 300 м кучево-дожд. 
[Cb cap]
+1.9 -1.7 77 -1  1018.9  732  293  +1.9    0.0    влажная 
09 12.10.18 330 (СЗ) 8-12{14}  20000 м    9/9 300 м кучево-дожд. 
[Cb cap]
+3.7 -4.6 55 1020.5  0.5  733  292           
18 12.10.18 320 (СЗ) 5{10}  10 км    4/4 600 м кучево-дожд. 
[Cb calv]
+1.7 -3.8 67 -1  1019.1  -0.9  732  294           
21 12.10.18 330 (СЗ) 6{12}  10 км    8/3 600 м кучево-дожд., средняя 
[Cb calv|Ac trans]
+0.4 -5 67 -3  1019.4  0.1  732  295           
00 13.10.18 310 (СЗ) 10 км    3/0 верхняя 
[Ci sp]
-1.6 -4.1 83 -4  1019.7  0.1  732  297           
03 13.10.18 290 (З) 20000 м    3/0 средняя 
[Ac trans]
-2.3 -4.4 85 -5  1020.2  0.3  733  298  -2.3        замёрзшая 
06 13.10.18 300 (СЗ) 20000 м    1/0 средняя 
[Ac trans]
+2.2 -2.9 69 1020  0.5  733  293  -2.3         
09 13.10.18 320 (СЗ) 5{10}  20000 м    9/3 600 м кучево-дожд., средняя 
[Cb calv|Ac trans]
+5.9 -5.5 44 +4  1019  -0.4  733  289           
18 13.10.18 340 (С) 6{11}  10 км    9/9 600 м кучево-дожд. 
[Cb cap]
+1.9 -3.2 69 -1  1019.7  0.4  733  293           
21 13.10.18 330 (СЗ) 3{10}  10 км    10/10 600 м кучево-дожд. 
[Cb cap]
+0 -4.5 72 -2  1020  733  296           
00 14.10.18 350 (С) 10 км    9/9 600 м 
[Sc]
+0.1 -5.7 65 -2  1020.1  0.1  733  296           
03 14.10.18 340 (С) 20000 м    9/9 600 м кучево-дожд. 
[Cb cap]
-0.2 -5.8 66 -2  1020.7  0.5  733  296  -1.5        сухая 
06 14.10.18 350 (С) 6{10}  20000 м    9/9 600 м кучево-дожд. 
[Cb cap]
+1.7 -7.4 51 -1  1021  0.6  734  294           
09 14.10.18 320 (СЗ) 5{10}  20000 м    9/9 600 м кучево-дожд. 
[Cb cap]
+2.2 -6.4 53 1021.1  0.2  734  294           
12 14.10.18 330 (СЗ) 20000 м    9/9 600 м 
[Sc]
+1.7 -6.9 53 -1  1021.2  734  294           
18 14.10.18 020 (С) 10 км    9/9 600 м 
[Sc]
-0.1 -5.1 69 -2  1022.4  0.6  734  297           
21 14.10.18 300 (СЗ) 10 км    9/4 600 м кучево-дожд., средняя 
[Cb calv|Ac As]
-0.7 -4.9 73 -2  1022.8  0.2  735  297           
00 15.10.18 тихо ()   10 км    9/9 600 м 
[Sc]
-1.8 -4.9 79 -2  1022.8  0.1  734  298           
03 15.10.18 300 (СЗ) 20000 м    9/8 600 м средняя 
[Sc|Ac trans]
-3.9 -6.3 83 -3  1023.7  0.5  735  301  -3.9        замёрзшая 
06 15.10.18 020 (С) 20000 м    9/0 средняя, верхняя 
[Ac trans|Ci sp]
+1.4 +5.3 100 +2  1023  0.1  735  294  -4.1         
09 15.10.18 330 (СЗ) 20000 м    9/8 600 м средняя 
[Sc|Ac trans]
+2.3 -5.8 55 +2  1023.2  0.3  735  294           
12 15.10.18 300 (СЗ) 20000 м    9/9 600 м 
[Sc]
+2.5 -5 58 +2  1023.5  0.3  735  294           
Время (UTC), дата Ветер
(°,м/с) 
Видим.   Явления Облачность Т
(°С)
Тd
(°С)
f(%) Тe
(°С)
Pmin
(гПа)
dP
(гПа)
Po
(мм)
O2
(г/м3)
Тmin Tmax R s Состояние
почвы

Для получения пояснительной информации подведите курсор к названию столбца.

ПОГОДА Аксаково - архив

Всё, что Вы хотите узнать о погоде Аксаково - удобно и подробно!

Выберите нужную дату (начиная с 1 января 2015* года) и нажмите кнопку "Найти".
Будут отображены архивные сводки погоды по пункту Аксаково, начиная с указанной даты.


Отображать данные в формате CSV (для использования в таблицах Excel)


Внимание! Наш архив погоды предназначен исключительно для личного некоммерческого использования в познавательных целях. Если Вам необходимы официальные справки о состоянии погоды (для производственных, юридических, коммерческих и т.п. целей), обращайтесь в органы Росгидромета.

*Примечание: данная дата относится к архиву по метеостанциям СССР (Россия, СНГ, Балтия).
Архив по метеостанциям Зарубежной Европы и Азии (кроме Китая) хранится 10 дней, по другим регионам земного шара (Китай, Африка, Америка, Австралия, Океания) - 1 день.

Аксаково - район местоположения метеостанции


Название, широта, долгота, высота метеостанции:
Аксаково 54°ш. 54.2°д. 348 м над ур. моря [Российская Федерация]

Дополнительная информация

В oтличие oт бoльшинства пoгoдных сайтoв мы публикуем пoдрoбную метеoинфoрмацию в детальнoм прoфессиoнальнoм фoрмате.

Характеристики температуры и влажнoсти вoздуха измеряются на высoте 2 м в тени вдали oт зданий и деревьев.
Скoрoсть ветра измеряется на высoте 10 м (на урoвне рoста челoвека скoрoсть ветра ниже в 1.5-2 раза). Если метеoстанция нахoдится в гoрoде или в лесу, тo скoрoсть ветра занижена на 2-4 м/с пo сравнению с oткрытым местoм. Скoрoсть ветра над акватoриями крупных рек и oзёр, а также на вершинах хoлмoв на 2-5 м/с выше, чем в oбычных услoвиях.
Атмoсфернoе давление в разных тoчках местнoсти мoжет значительнo oтличаться oт давления на метеoстанции, в зависимoсти oт услoвий рельефа (при пoдъёме на 10 м давление пoнижается примернo на 1 мм рт.ст.).